Regional Weather Roundup
Issued by NWS Wakefield, VA

Home | Current Version | Previous Version | Text Only | Print | Product List | Glossary Off
Versions: 1 2 3 4 5 6 7 8 9 10 11 12 13 14 15 16 17 18 19 20 21 22 23 24 25 26 27 28

000
ASUS41 KAKQ 040615
RWRAKQ

REGIONAL WEATHER ROUNDUP
NATIONAL WEATHER SERVICE WAKEFIELD VA
200 AM EDT WED MAY 04 2016

Note: "fair" indicates few or no clouds below 12,000 feet with no
significant weather and/or obstructions to visibility. * = Denotes
station may not report precipitation (e.g., rain,snow,etc.),
thunder or fog.

VAZ042-051-052>054-056-040700-
NORTHERN VIRGINIA

CITY           SKY/WX    TMP DP  RH WIND       PRES   REMARKS
WASH NATIONAL  DRIZZLE   57  55  93 NE9       29.77F
DULLES         CLOUDY    56  54  93 CALM      29.77F FOG
FORT BELVOIR   MOCLDY    57  54  88 CALM      29.75F
QUANTICO       CLOUDY    59  56  89 NE9       29.76F
FREDERICKSBRG* NOT AVBL
STAFFORD*      CLOUDY    57  55  94 NE5       29.79F FOG
WARRENTON      CLOUDY    58  54  84 NE3       29.76F HAZE
CULPEPER*      CLOUDY    58  58  99 CALM      29.77F FOG
MANASSAS*      CLOUDY    57  57 100 CALM      29.77F
LEESBURG*      CLOUDY    57  57 100 CALM      29.78S FOG
WINCHESTER     CLOUDY    54  54 100 CALM      29.76F
FRONT ROYAL*   CLOUDY    55  55 100 CALM      29.76F
LURAY*         FOG       55  55 100 CALM      29.77F VSB 1/4
$$

VAZ048-049-060>072-079>083-040700-
CENTRAL AND SOUTH CENTRAL VIRGINIA

CITY           SKY/WX    TMP DP  RH WIND       PRES   REMARKS
RICHMOND       CLOUDY    60  59  96 N12       29.72F FOG
CHESTERFIELD*  CLOUDY    61  48  63 N6        29.73F
PETERSBURG*    MOCLDY    62  62 100 NW6       29.72F
HANOVER        RAIN      60  58  92 N3        29.75F FOG
TAPPAHANNOCK*  CLOUDY    61  61 100 N6        29.74F FOG
QUINTON*       CLOUDY    60  60 100 N7        29.72F FOG
CHARLOTTSVILLE FOG       58  56  93 NW3       29.76F VSB 1/4
GORDONSVILLE*  CLOUDY    57  57 100 CALM      29.75F FOG
ORANGE*        MOCLDY    59  59 100 CALM      29.77F
LOUISA*        MOCLDY    61  61 100 NE3       29.74F FOG
BUMPASS*       MOCLDY    57  57  99 CALM      29.75F
FARMVILLE*     CLOUDY    60  60 100 N5        29.72F
CREWE*         CLOUDY    59  59 100 NW5       29.73F
FORT PICKETT*  NOT AVBL
CHASE CITY*    MOCLDY    60  58  94 W3        29.73F
CLARKSVILLE*   CLOUDY    63  63 100 CALM      29.74R
SOUTH HILL*    CLOUDY    60  60  99 N3        29.78R
LAWRENCEVILLE* CLOUDY    60  60 100 CALM      29.71S
EMPORIA*       TSTM      61  61 100 CALM      29.74R
$$

VAZ088>098-040700-
SOUTHEAST VIRGINIA

CITY           SKY/WX    TMP DP  RH WIND       PRES   REMARKS
NORFOLK        CLOUDY    63  60  90 N5        29.69F
VIRGINIA BEACH CLOUDY    65  60  84 CALM      29.68F
NORFOLK NAVAL  CLOUDY    62  61  96 N6        29.70F
WEST POINT*    CLOUDY    60  59  97 E6        29.72F
SALUDA*        CLOUDY    57  57  99 NE6       29.73F
NEWPORT NEWS   CLOUDY    60  59  96 N8        29.70F FOG
LANGLEY AFB    CLOUDY    61  61 100 N9        29.70S
FORT EUSTIS    CLOUDY    61  61 100 NE6       29.69F
WILLIAMSBURG*  CLOUDY    63  61  94 CALM      29.72F
HR EXEC AP*    MOCLDY    63  57  82 CALM      29.71F
FRANKLIN*      CLOUDY    60  59  97 CALM      29.70S
US460-WAKEFLD  CLOUDY    63  60  90 NE3       29.70F
$$

VAZ020-022-025-037-045-040700-
WEST CENTRAL AND SOUTHWEST VIRGINIA

CITY           SKY/WX    TMP DP  RH WIND       PRES   REMARKS
STAUNTON*      CLOUDY    58  58 100 N3        29.79F
WAYNESBORO*    CLOUDY    56  54  91 NW5       29.78F
HOT SPRINGS VA FAIR      46  46 100 W8        29.79F
LYNCHBURG      FAIR      58  49  72 NW5       29.77F
DANVILLE       CLOUDY    60  53  77 NW9       29.75F
SOUTH BOSTON*  CLOUDY    61  59  95 CALM      29.74S
MARTINSVILLE   CLOUDY    53  53 100 NW3       29.80F FOG
ROANOKE        FAIR      57  46  66 CALM      29.81S
BLACKSBURG     MOCLDY    48  47  94 CALM      29.84S
DUBLIN*        FAIR      53  49  87 NW3       29.83F
MARION*        MOCLDY    51  44  76 CALM      29.86S
HILLSVILLE*    MOCLDY    50  46  86 N9        29.81S
RICHLANDS*     CLOUDY    49  32  51 W6        29.84F
WISE*          CLOUDY    50  39  66 CALM      29.86F
ABINGDON*      CLOUDY    56  45  67 N6        29.84F
$$

MDZ021>025-VAZ099-100-040700-
SOUTHERN MARYLAND AND THE DELMARVA PENINSULA

CITY           SKY/WX    TMP DP  RH WIND       PRES   REMARKS
PATUXENT RIVER CLOUDY    55  53  93 NE8       29.75S
BAY BRIDGE APT NOT AVBL
LEONARDTOWN    CLOUDY    55  54  94 NE3       29.78S
DOVER          CLOUDY    51  51  99 NE6       29.78S
GEORGETOWN     CLOUDY    50  49  96 NE12      29.78F
EASTON         DRIZZLE  N/A N/A N/A E6        29.81F
CAMBRIDGE      CLOUDY    50  50 100 NE3       29.76F
SALISBURY      CLOUDY    51  50  96 N6        29.76S
OCEAN CITY     CLOUDY    50  49  96 NE12      29.75F
WALLOPS ISLAND CLOUDY    53  52  96 N8        29.74F FOG
ACCOMACK*      CLOUDY    52   5  15 NE6       29.73F HAZE
$$

NCZ012>017-030>032-040700-
NORTH CENTRAL AND EASTERN NORTH CAROLINA

CITY           SKY/WX    TMP DP  RH WIND       PRES   REMARKS
ROANOKE RAPIDS CLOUDY    61  61 100 W3        29.74R
RALEIGH        MOCLDY    63  61  94 CALM      29.73F
ELIZABETH CITY LGT RAIN  65  61  87 S8        29.71S
AHOSKIE*       CLOUDY    61  60  96 CALM      29.70F
EDENTON*       CLOUDY    66  66 100 SW3       29.71F
CURRITUCK*     NOT AVBL
KILL DEVIL HLS LGT RAIN  64  60  87 SW3       29.73R
MANTEO         NOT AVBL
CAPE HATTERAS  PTCLDY    69  68  96 W7        29.72F
TARBORO*       DRIZZLE   63  62  97 CALM      29.70F
GOLDSBORO      MOCLDY    65  65 100 S3        29.69F
WASHINGTON     CLOUDY    64  62  94 S5        29.70F
GREENVILLE     PTCLDY    64  63  94 SW3       29.73F
NEW BERN       RAIN      65  60  84 CALM      29.73F
WILMINGTON     CLOUDY    72  68  87 SW14G22   29.71F
$$

VAZ048-040700-
ELSEWHERE

CITY           SKY/WX    TMP DP  RH WIND       PRES   REMARKS
HARRISBURG PA  LGT RAIN  55  52  89 SE6       29.76F FOG
BALTIMORE      LGT RAIN  55  53  93 E8        29.78S
ANNAPOLIS      CLOUDY    55  53  93 N5        29.77F
ANDREWS AFB    MOCLDY    55  54  94 E7        29.74F
PHILADELPHIA   CLOUDY    52  47  83 E8        29.80F
HENDERSON NC   PTCLDY    63  63 100 W3        29.74F
GREENSBORO     MOCLDY    61  52  72 N5        29.75F
ROCKY MOUNT    CLOUDY    63  63 100 NW6       29.71F
$$

VAZ100-040700-
MARINE

STATION/POSITION TIME  TEMP    WIND        PRES    WAVE   SWELL
                       AIR SEA DIR/SP/G            HT/PER HT/PER
                 (UTC) (F)     (DEG/KT/KT) (MB)    (FT/S) (FT/S)
BRANDYWINE LGT   0500   50      70/ 14/ 16 1008.3F
CAPE MAY NJ      0500   49 58   60/  5/ 10 1008.0F
LEWES DE         0500   50 57   70/ 12/ 15 1008.6F
15NM E FENWICK I 0550   49 52              1007.2S   4/ 6
OCEAN-CITY-INLET 0500   50 55   30/  6/ 12 1007.3F
WACHAPREAGUE VA  0500   54 66   60/ 13/ 16 1006.5R
THOMAS POINT MD  0600   55 59   70/  8/ 10 1009.3F
GOOSES REEF MD   0600   56 59   70/ 10/ 12 1008.7F   1/ 4
COVE POINT MD    0500   55      70/ 13/ 16 1008.4S
SOLOMONS ISLAND  0500   56 63   70/ 10/ 13   N/A
BISHOPS HEAD MD  0500   54 63   10/  8/ 11 1007.5R
PINEY POINT MD   0500           90/  8/ 11   N/A
POTOMAC MD       0600   55 60   80/ 14/ 16 1006.0F   1/ 3
CAMBRIDGE MD     0500   53 62   60/  8/ 10 1007.9R
LEWISETTA VA     0500   58 63   70/ 13/ 17 1007.1S
RAPPAHANNOCK LGT 0500           40/  5/  7 1007.8R
STINGRAY PT      0600   57 62   40/ 14/ 16 1007.1F   2/ 3
YORK RVR RNG VA  0500   59     110/  7/  8 1005.9F
YORKTOWN VA      0500   60 64   80/  6/  7 1006.2F
JAMESTOWN VA     0600   60 68   40/  6/ 10   N/A     0
DOMINION TERM VA 0500   62      60/  6/  8 1006.0F
KIPTOPEKE VA     0500      63   90/  2/  3   N/A
CHES BAY BRIDGE  0500   62 62   10/  4/  4 1005.6F
CAPE HENRY VA    0500   62     330/  2/  3   N/A
CHESAPEAKE LGHT  0500   62      70/  1/  1 1006.8F
WILLOUBY STN VA  0500   61      20/  5/  6 1007.0F
CAPE HENRY BUOY  0512      60                N/A     2/ 7
CAPE CHARLES BUO 0526      58                N/A     2/ 9   2/ 9
OFFSHORE WE BUOY 0521      57                N/A     3/ 8   3/ 8
64NM E OF VA BCH 0550   57 55  140/  4/  8 1005.6F   3/ 7   3/ 7
44100 DUCK FRF   0524      61                N/A     2/ 9
44056 DUCK FRF   0511      58                N/A     2/10
OREGON INLET NC  0500   69 71  290/  5/  8 1006.1F
HATTERAS NC      0500   70 70  230/  6/  9 1006.4F
DIAMOND SHLS NC  0550   71 72  260/ 10/ 12 1006.7F   4/ 8   3/ 8
CAPE LOOKOUT NC  0600   70     240/  1/  2 1005.9F
$$




USA.gov is the U.S. government's official web portal to all federal, state and local government web resources and services.